User: anonymous   Login
Location: Unspecified
(0.0000°N, 0.0000°E)
Time: 15:50:55
(UTC+02:00)
Language:

Cosmos 1703 - Orbit

View from above orbital plane
View from above orbital plane
View from above satellite
View from above satellite

Ground track
Ground track

The orbit data is extracted from the following two-line orbital elements,

1 16262U 85108A   17234.86858110 +.00001433 +00000-0 +85239-4 0  9995
2 16262 082.4823 184.4554 0013429 050.8626 309.3795 15.10418781728709
Epoch (UTC): 22 August 2017 20:50:45
Eccentricity: 0.0013429
inclination: 82.4823°
perigee height: 525 km
apogee height: 544 km
right ascension of ascending node: 184.4554°
argument of perigee: 50.8626°
revolutions per day: 15.10418781
mean anomaly at epoch: 309.3795°
orbit number at epoch: 72870

The dashed part of the orbit path shows where the satellite is in the earth's shadow,  

DLR